FENGYUN 2D 1 29640U 06053A 21054.75732225 -.00000141 00000-0 00000-0 0 9997 2 29640 7.2821 52.2683 0013563 347.7226 218.9312 0.98194319 51958 FENGYUN 2D AKM 1 29642U 06053C 21054.48200973 -.00000099 00000-0 00000-0 0 9991 2 29642 8.2824 51.2225 0110812 1.4949 177.2108 0.99352218 26986 FENGYUN 2D DEB 1 33458U 06053D 21054.95153455 -.00000202 00000-0 00000+0 0 9990 2 33458 8.2126 50.6827 0065139 350.8920 180.9303 1.00282812 45886